TimeCST,TemperatureF,Dew PointF,Humidity,Sea Level PressureIn,VisibilityMPH,Wind Direction,Wind SpeedMPH,Gust SpeedMPH,PrecipitationIn,Events,Conditions,WindDirDegrees,DateUTC
12:53 AM,59.0,57.0,93,30.08,10.0,Calm,Calm,-,N/A,,Clear,0,2012-11-08 06:53:00
1:53 AM,61.0,57.0,87,30.08,10.0,SSW,3.5,-,N/A,,Clear,200,2012-11-08 07:53:00
2:53 AM,60.1,55.9,86,30.07,10.0,Calm,Calm,-,N/A,,Clear,0,2012-11-08 08:53:00
3:53 AM,57.0,54.0,89,30.06,10.0,South,3.5,-,N/A,,Clear,180,2012-11-08 09:53:00
4:53 AM,57.0,54.0,89,30.07,10.0,SW,4.6,-,N/A,,Clear,220,2012-11-08 10:53:00
5:53 AM,55.0,53.1,93,30.08,8.0,Calm,Calm,-,0.01,,Clear,0,2012-11-08 11:53:00
6:53 AM,54.0,52.0,93,30.09,3.0,Calm,Calm,-,N/A,,Clear,0,2012-11-08 12:53:00
7:03 AM,53.6,51.8,94,30.10,2.0,Calm,Calm,-,N/A,,Clear,0,2012-11-08 13:03:00
7:23 AM,55.4,53.6,94,30.11,3.0,Calm,Calm,-,N/A,,Clear,0,2012-11-08 13:23:00
7:53 AM,60.1,57.0,90,30.11,9.0,Calm,Calm,-,N/A,,Clear,0,2012-11-08 13:53:00
8:53 AM,72.0,60.1,66,30.13,10.0,South,10.4,-,N/A,,Clear,180,2012-11-08 14:53:00
9:53 AM,80.1,62.1,54,30.12,10.0,South,15.0,25.3,N/A,,Clear,180,2012-11-08 15:53:00
10:53 AM,82.9,57.9,42,30.11,10.0,SSE,17.3,24.2,N/A,,Clear,160,2012-11-08 16:53:00
11:53 AM,84.9,55.9,37,30.07,10.0,SSE,16.1,25.3,N/A,,Clear,160,2012-11-08 17:53:00
12:53 PM,87.1,57.0,36,30.03,10.0,SE,13.8,-,N/A,,Clear,140,2012-11-08 18:53:00
1:53 PM,89.1,57.0,34,30.00,10.0,SSE,16.1,20.7,N/A,,Clear,160,2012-11-08 19:53:00
2:53 PM,88.0,59.0,37,29.99,10.0,SE,15.0,32.2,N/A,,Clear,140,2012-11-08 20:53:00
3:53 PM,84.9,62.1,46,29.99,10.0,SE,21.9,29.9,N/A,,Clear,140,2012-11-08 21:53:00
4:53 PM,81.0,63.0,54,29.99,10.0,SE,21.9,31.1,N/A,,Clear,130,2012-11-08 22:53:00
5:53 PM,78.1,62.1,58,30.00,10.0,SE,15.0,25.3,N/A,,Clear,140,2012-11-08 23:53:00
6:53 PM,75.9,62.1,62,30.02,10.0,SE,15.0,25.3,N/A,,Clear,140,2012-11-09 00:53:00
7:53 PM,75.0,63.0,66,30.04,10.0,SSE,13.8,-,N/A,,Clear,150,2012-11-09 01:53:00
8:53 PM,73.9,63.0,68,30.04,10.0,SSE,12.7,-,N/A,,Clear,150,2012-11-09 02:53:00
9:53 PM,71.1,63.0,75,30.05,10.0,SSE,8.1,-,N/A,,Clear,150,2012-11-09 03:53:00
10:53 PM,66.0,61.0,84,30.05,10.0,SSE,5.8,-,N/A,,Clear,160,2012-11-09 04:53:00
11:53 PM,64.9,61.0,87,30.05,10.0,SSE,5.8,-,N/A,,Clear,160,2012-11-09 05:53:00